[[{"header":{"parameterUnit":"m.s-1","parameterCategory":1,"la1":30.2991,"la2":30.254,"lo1":-89.0895,"lo2":-89.0444,"dy":0.0017,"dx":0.0017,"nx":28,"ny":28,"refTime":"2023-08-05T09:00:00:Z","depth":0,"parameterNumber":2,"parameterNumberName":"U-component_of_WINDS"},"data":[0,0,0,0,0,0,0,0,0,0,0,0,0,0,0,0,0,0,0,0,0,0,0,0,0,0,0,0,0,0,0,0,0,0,0,0,0,0,0,0,0,0,0,0,0,0,0,0,0,0,0,0,0,0,0,0,0,0,1.9877,1.9879,0,2.0023,2.0025,2.0026,2.0027,2.0026,2.0024,2.0022,2.0177,2.0182,2.0188,0,0,0,0,0,0,0,0,0,0,0,0,0,1.9605,1.961,1.9877,1.9879,1.9881,2.0023,2.0025,2.0027,2.0028,2.0025,2.0023,2.0021,2.0175,2.0181,2.0189,0,0,0,0,0,0,0,0,0,0,0,0,0,1.9734,1.9612,1.9877,1.9898,1.9902,2.0022,2.0025,2.0027,2.0028,2.0025,2.0023,2.002,2.0172,2.0181,2.019,2.03,0,0,2.0216,2.022,0,0,0,0,0,0,0,0,1.9727,1.9744,1.9893,1.9897,1.9901,2.0004,1.9985,2.0119,2.0029,1.998,2.0022,2.0019,2.0122,2.0135,2.0168,2.0307,2.0314,2.0217,2.0223,2.0226,2.0229,0,0,0,0,0,0,0,1.9718,1.9738,1.9935,1.9896,1.99,1.9902,1.9918,2.0011,2.0065,1.9984,1.9985,2.0002,2.0123,2.016,2.0172,2.0316,2.0217,2.0225,2.023,2.0234,2.0553,2.0556,0,0,0,0,0,0,1.9704,1.9731,1.993,1.9939,1.9805,1.991,1.9927,1.9974,2.0064,2.0075,2.0004,2.0001,2.0146,2.0162,2.0177,2.0312,2.0226,2.0234,2.024,2.055,2.0554,2.0557,0,0,0,0,0,0,1.9698,1.9722,1.9925,1.9835,1.9861,1.9917,1.997,1.9978,2.0014,2.0079,2.0089,2.0031,2.0144,2.0165,2.0269,2.0317,2.0238,2.0246,2.0546,2.0551,2.0556,2.0582,0,0,0,0,0,0,1.969,1.972,1.9761,1.9836,1.9866,2.0012,1.9973,1.9983,2.0029,2.0027,2.0107,2.0117,2.0144,2.0256,2.0278,2.0328,2.0253,2.0542,2.0549,2.0554,2.0578,2.0588,2.0596,0,0,0,0,0,1.9681,1.9764,1.9763,1.9787,1.9918,2.0015,2.0032,2.0059,2.0033,2.0076,2.0117,2.0115,2.0309,2.0267,2.0291,2.0345,2.0539,2.0547,2.0554,2.0573,2.0586,2.0596,0,0,0,0,0,0,1.9695,1.9774,1.9774,1.9884,1.9943,2.0015,2.007,2.0072,2.0141,2.0136,2.0169,2.0187,2.029,2.0328,2.028,2.0457,2.0421,2.0434,2.0427,2.044,2.0449,2.0437,2.0261,0,0,0,0,0,1.9711,1.9781,1.9847,1.9938,1.9967,2.0013,2.0057,2.0072,2.0135,2.016,2.0209,2.0272,2.0347,2.0396,2.0468,2.0583,2.0601,2.0633,2.0642,2.0649,2.066,2.0723,2.0738,2.0581,2.0581,2.0581,0,0,1.9744,1.9796,1.9839,1.9942,1.9989,2.0062,2.0034,2.0113,2.0168,2.0173,2.0273,2.0312,2.0384,2.0494,2.0545,2.0529,2.0707,2.0659,2.0664,2.067,2.0732,2.0747,2.076,2.0586,2.0585,2.0584,0,0,1.9842,1.9889,1.9969,2.0017,2.0088,2.0118,2.0138,2.021,2.0235,2.0336,2.0341,2.0408,2.0537,2.0587,2.063,2.0748,2.0748,2.0771,2.082,2.0881,2.0893,2.0904,2.0945,2.096,2.0781,2.0781,2.0781,0,1.9875,1.9984,2.001,2.0089,2.0134,2.0141,2.0223,2.0268,2.0361,2.0392,2.0373,2.0534,2.0583,2.0704,2.0733,2.0768,2.0791,2.0761,2.0889,2.09,2.0911,2.0951,2.0966,2.0783,2.0783,2.0783,2.0783,0,2.0021,2.0097,2.0153,2.024,2.0292,2.0372,2.0412,2.0462,2.0473,2.0506,2.0609,2.0668,2.0752,2.0783,2.0796,2.0907,2.0894,2.0882,2.0846,2.0928,2.0965,2.0981,2.0787,2.0786,2.0785,2.0785,0,0,2.0131,2.0231,2.0251,2.0291,2.037,2.043,2.0511,2.0592,2.0634,2.0698,2.0766,2.0875,2.0864,2.0912,2.0931,2.0985,2.1074,2.0966,2.0968,2.0983,2.1199,2.1206,2.1223,2.1075,2.1078,2.108,2.1192,0,2.0237,2.0378,2.0405,2.0529,2.0599,2.0607,2.0677,2.0735,2.0768,2.0833,2.0871,2.0947,2.0926,2.0955,2.1009,2.1051,2.1117,2.1044,2.114,2.1143,2.112,2.1243,2.1252,2.1355,2.1207,2.121,2.1212,0,2.0379,2.0444,2.0575,2.0644,2.0675,2.0738,2.0813,2.0876,2.0942,2.0962,2.1016,2.1029,2.1114,2.1076,2.1195,2.1144,2.1185,2.1212,2.1217,2.1226,2.1181,2.1255,2.1388,2.1403,2.1235,2.1233,2.1232,0,2.0444,2.0566,2.0659,2.0693,2.0777,2.0821,2.0858,2.0921,2.0967,2.1035,2.1065,2.1143,2.1185,2.1245,2.1278,2.1247,2.1395,2.1359,2.1414,2.1413,2.1444,2.1441,2.1584,2.1473,2.1472,2.1472,2.1472,0,2.0559,2.0638,2.0689,2.0747,2.0836,2.0867,2.0955,2.0992,2.1048,2.1114,2.1126,2.1188,2.1229,2.1297,2.1324,2.1418,2.1438,2.1457,2.1463,2.1455,2.1452,2.1481,2.1475,2.1476,2.1475,2.1474,2.1474,0,2.0646,2.0684,2.0786,2.0857,2.0877,2.094,2.1001,2.1058,2.1091,2.1174,2.1196,2.1249,2.1329,2.1369,2.147,2.1488,2.1594,2.1596,2.1571,2.1573,2.1625,2.1619,2.1791,2.1815,2.1688,2.169,2.1691,0,2.0716,2.0777,2.0854,2.0898,2.0936,2.1008,2.1055,2.1088,2.1137,2.1216,2.1264,2.1345,2.1411,2.1539,2.1588,2.1665,2.1668,2.1724,2.168,2.167,2.1668,2.1663,2.1669,2.1731,2.1732,2.1733,2.1734,0,2.0835,2.0851,2.0918,2.0992,2.1048,2.1108,2.1167,2.1203,2.1246,2.1301,2.1382,2.1434,2.1536,2.1616,2.1697,2.1737,2.1743,2.1747,2.1764,2.1755,2.1737,2.1746,2.159,2.1743,2.1742,2.1741,2.1741,2.174,2.0915,2.097,2.1032,2.1107,2.1155,2.121,2.1266,2.1306,2.1374,2.1459,2.1475,2.1561,2.1626,2.1735,2.1777,2.1846,2.1834,2.1859,2.1865,2.187,2.1872,2.1728,2.1862,2.1861,2.1861,2.1861,2.1861,0,2.1034,2.1075,2.1143,2.1225,2.1283,2.1283,2.1349,2.1398,2.1474,2.1533,2.1597,2.1691,2.1769,2.1823,2.1903,2.1948,2.1952,2.1967,2.1964,2.1973,2.1879,2.1855,2.1962,2.1962,2.1962,2.1962,2.1962,2.1962,2.1102,2.1194,2.1217,2.1333,2.1374,2.1457,2.1494,2.1546,2.1593,2.1697,2.1761,2.1795,2.1853,2.1937,2.2008,2.2022,2.205,2.2065,2.2079,2.199,2.1979,2.1969,2.1947,2.2072,2.2072,2.2167,2.2168,2.2169]},{"header":{"parameterUnit":"m.s-1","parameterCategory":1,"la1":30.2991,"la2":30.254,"lo1":-89.0895,"lo2":-89.0444,"dy":0.0017,"dx":0.0017,"nx":28,"ny":28,"refTime":"2023-08-05T09:00:00:Z","depth":0,"parameterNumber":3,"parameterNumberName":"V-component_of_WINDS"},"data":[0,0,0,0,0,0,0,0,0,0,0,0,0,0,0,0,0,0,0,0,0,0,0,0,0,0,0,0,0,0,0,0,0,0,0,0,0,0,0,0,0,0,0,0,0,0,0,0,0,0,0,0,0,0,0,0,0,0,4.6633,4.6633,0,4.6675,4.6675,4.6676,4.666,4.6659,4.6658,4.6657,4.6697,4.6699,4.6701,0,0,0,0,0,0,0,0,0,0,0,0,0,4.6533,4.6535,4.6633,4.6633,4.6634,4.6675,4.6675,4.6676,4.666,4.6659,4.6658,4.6657,4.6696,4.6699,4.6701,0,0,0,0,0,0,0,0,0,0,0,0,0,4.6576,4.6536,4.6633,4.6631,4.6631,4.6675,4.6675,4.6676,4.6661,4.6659,4.6658,4.6656,4.6696,4.6699,4.6701,4.6748,0,0,4.671,4.6712,0,0,0,0,0,0,0,0,4.6573,4.6579,4.6631,4.6631,4.6632,4.6661,4.6655,4.67,4.6661,4.6649,4.6657,4.6656,4.6686,4.669,4.67,4.675,4.6751,4.6711,4.6712,4.6714,4.6714,0,0,0,0,0,0,0,4.657,4.6578,4.6649,4.6632,4.6632,4.6626,4.6631,4.6663,4.6675,4.665,4.6649,4.6655,4.6686,4.6698,4.6701,4.6752,4.671,4.6713,4.6715,4.6716,4.6836,4.6837,0,0,0,0,0,0,4.6568,4.6575,4.6648,4.6651,4.6599,4.6629,4.6634,4.6653,4.6675,4.6677,4.6656,4.6654,4.6693,4.6698,4.6703,4.6755,4.6714,4.6716,4.6718,4.6835,4.6836,4.6838,0,0,0,0,0,0,4.6566,4.6575,4.6646,4.6613,4.6621,4.6632,4.6653,4.6654,4.6666,4.6679,4.668,4.6666,4.6692,4.6699,4.6736,4.6756,4.6718,4.672,4.6833,4.6835,4.6837,4.6862,0,0,0,0,0,0,4.6563,4.6574,4.6594,4.6613,4.6623,4.6681,4.6655,4.6656,4.6672,4.6669,4.6689,4.6691,4.6692,4.6731,4.6739,4.6759,4.6723,4.6831,4.6834,4.6836,4.6859,4.6864,4.6869,0,0,0,0,0,4.656,4.6599,4.6595,4.6604,4.6648,4.6682,4.6687,4.6689,4.6674,4.6692,4.6699,4.669,4.6753,4.6735,4.6743,4.6765,4.683,4.6833,4.6836,4.6857,4.6863,4.6869,0,0,0,0,0,0,4.6582,4.6602,4.6597,4.6645,4.6662,4.6679,4.6703,4.6697,4.6718,4.6715,4.6714,4.6719,4.6756,4.6765,4.6745,4.6809,4.6789,4.6794,4.6802,4.6808,4.6813,4.6809,4.6725,0,0,0,0,0,4.6592,4.6619,4.6635,4.6675,4.6684,4.6692,4.6707,4.6706,4.6723,4.673,4.6741,4.6757,4.6779,4.6794,4.6817,4.6861,4.6862,4.6879,4.6884,4.6888,4.6892,4.6911,4.6917,4.6848,4.6848,4.6848,0,0,4.6614,4.6628,4.6646,4.668,4.6693,4.6719,4.6698,4.6728,4.6746,4.6735,4.6769,4.6777,4.6795,4.6834,4.6852,4.6842,4.6911,4.6892,4.6895,4.6897,4.6915,4.6921,4.6927,4.6851,4.685,4.685,0,0,4.6666,4.6681,4.6714,4.6727,4.6747,4.6751,4.6759,4.6777,4.6782,4.6817,4.6808,4.6829,4.6869,4.6881,4.6892,4.6944,4.6935,4.6951,4.6976,4.6995,4.7001,4.7005,4.702,4.7026,4.6955,4.6955,4.6955,0,4.669,4.673,4.6732,4.676,4.6774,4.6765,4.6796,4.6809,4.6834,4.6843,4.6832,4.688,4.6891,4.6931,4.6943,4.6954,4.696,4.6948,4.7,4.7005,4.7009,4.7023,4.7029,4.6957,4.6957,4.6956,4.6956,0,4.6756,4.6784,4.6807,4.6832,4.6848,4.6878,4.6882,4.6898,4.6895,4.69,4.6933,4.6947,4.6969,4.6979,4.6977,4.7018,4.701,4.7,4.6979,4.7017,4.703,4.7036,4.6959,4.6959,4.6958,4.6958,0,0,4.6824,4.6847,4.6855,4.6864,4.6884,4.6904,4.6932,4.6954,4.6966,4.6983,4.7004,4.7037,4.7027,4.7039,4.7038,4.7055,4.709,4.7042,4.7042,4.7048,4.7131,4.7137,4.7144,4.7085,4.7087,4.7087,4.7129,0,4.6874,4.6924,4.6925,4.6969,4.6992,4.6982,4.7006,4.7019,4.7024,4.7042,4.7047,4.7068,4.7055,4.7061,4.7078,4.7083,4.7107,4.708,4.7102,4.7103,4.7095,4.7151,4.7158,4.7196,4.7134,4.7135,4.7136,0,4.694,4.6958,4.7005,4.7017,4.7027,4.7049,4.7066,4.7086,4.7099,4.7101,4.7113,4.7109,4.7134,4.7114,4.7147,4.7129,4.7138,4.7141,4.7143,4.7143,4.712,4.7149,4.7209,4.7213,4.7145,4.7144,4.7143,0,4.698,4.7016,4.7048,4.7056,4.7073,4.7087,4.7094,4.7107,4.7118,4.7134,4.7141,4.716,4.7169,4.7182,4.7182,4.7168,4.7214,4.7195,4.7213,4.7213,4.7222,4.7221,4.7281,4.7233,4.7232,4.7232,4.7232,0,4.7034,4.7062,4.7065,4.7084,4.7114,4.7113,4.7142,4.7148,4.7158,4.7176,4.717,4.7187,4.7186,4.7203,4.7203,4.7228,4.7233,4.7233,4.7232,4.7232,4.7232,4.7236,4.7232,4.7234,4.7234,4.7233,4.7233,0,4.7083,4.7086,4.7119,4.7131,4.7135,4.7156,4.7165,4.7182,4.7185,4.7208,4.7213,4.7217,4.7236,4.7237,4.7259,4.7259,4.7288,4.7286,4.7284,4.7282,4.7299,4.7297,4.7362,4.7369,4.7319,4.732,4.732,0,4.7116,4.7137,4.715,4.7162,4.717,4.7189,4.7201,4.72,4.7212,4.7227,4.7241,4.7259,4.7273,4.7303,4.7308,4.7323,4.7319,4.7341,4.7322,4.732,4.7316,4.7313,4.7314,4.7344,4.7345,4.7345,4.7346,0,4.7173,4.7173,4.719,4.7207,4.7221,4.7234,4.7247,4.7256,4.7257,4.727,4.7289,4.73,4.7321,4.7338,4.7353,4.7359,4.7351,4.7352,4.7356,4.7355,4.7352,4.7351,4.7291,4.735,4.735,4.7349,4.7349,4.7349,4.7213,4.7229,4.724,4.7258,4.7267,4.7278,4.7293,4.7298,4.7314,4.7331,4.7329,4.7349,4.7359,4.7378,4.7385,4.7399,4.7391,4.7399,4.74,4.7401,4.7401,4.7352,4.7402,4.7402,4.7402,4.7402,4.7402,0,4.7266,4.7272,4.7289,4.7305,4.7319,4.7312,4.7324,4.7335,4.7353,4.7363,4.7377,4.7396,4.7412,4.7417,4.7432,4.7442,4.7438,4.7445,4.7443,4.7444,4.7409,4.7402,4.7447,4.7447,4.7447,4.7447,4.7447,4.7447,4.7295,4.7321,4.7322,4.7351,4.7357,4.7376,4.7383,4.7392,4.74,4.7422,4.7435,4.7438,4.7445,4.746,4.7473,4.7474,4.7478,4.7486,4.7485,4.7452,4.7447,4.7442,4.7436,4.7487,4.7487,4.7518,4.7518,4.7518]}]]